Weather Roundup
Issued by NWS

Home | Current Version | Previous Version | Text Only | Print | Product List | Glossary On
Versions: 1 2 3 4 5 6 7 8 9 10 11 12 13 14 15 16 17 18 19 20 21 22 23 24 25 26 27 28 29 30 31 32 33 34 35 36 37 38 39 40 41 42 43 44 45 46 47 48 49 50
587
NZUS93 KARX 180359
HRRWXR

CURRENT HOURLY OBSERVATIONS ACROSS
MUCH OF THE UPPER MISSISSIPPI VALLEY
NATIONAL WEATHER SERVICE LA CROSSE WI
1000 PM CST TUE JAN 17 2017


...SOUTHEAST MINNESOTA...


CITY           SKY/WX    TMP DP  RH WIND       PRES   REMARKS
ROCHESTER      FOG       30  30 100 W12       30.01S VSB 3/4 WCI  20
ROCHESTER/MAYO CLOUDY    32  32 100 SW9       30.01S VSB 3/4 WCI  24
WINONA         CLOUDY    34  32  93 W5        30.03S WCI  30
AUSTIN         CLOUDY    28  28 100 SW8       30.01F FOG     WCI  20
ALBERT LEA     FOG       28  28 100 SW5       30.01S VSB 3/4 WCI  23
DODGE CENTER   CLOUDY    28  28 100 CALM      30.00S FOG
PRESTON        CLOUDY    31  31  98 W9        30.02R FOG     WCI  23
OWATONNA       CLOUDY    28  28 100 SW9       30.01S FOG     WCI  20
FARIBAULT      CLOUDY    28  28 100 S6        30.01S WCI  22
$$

...ELSEWHERE IN MINNESOTA...


CITY           SKY/WX    TMP DP  RH WIND       PRES   REMARKS
MINNEAPOLIS    CLOUDY    30  26  85 SW9       30.00S WCI  22
INTNL FALLS    CLOUDY    27  18  69 S6        29.71F WCI  20
DULUTH         CLOUDY    27  19  72 SW10      29.84F WCI  17
RED WING       CLOUDY    34  30  86 W8        30.00F WCI  27
REDWOOD FALLS  CLOUDY    19  17  92 S5        29.96F WCI  12
MANKATO        NOT AVBL
WORTHINGTON    CLOUDY    26  25  96 SW17      29.98F WCI  13
FAIRMONT       CLOUDY    27  25  92 SW9       30.01  WCI  18
$$

...SOUTHWEST WISCONSIN...


CITY           SKY/WX    TMP DP  RH WIND       PRES   REMARKS
LA CROSSE      CLOUDY    36  32  85 W6        30.02R FOG     WCI  31
PRAIRIE DU CHI CLOUDY    34  33  96 W5        30.04R FOG     WCI  30
BOSCOBEL       CLOUDY    35  33  92 SW6       30.03R FOG     WCI  30
LONE ROCK      CLOUDY    34  32  92 W7        30.01R FOG     WCI  28
PLATTEVILLE    CLOUDY    34  34 100 W8        30.01R WCI  27
FORT MC COY    CLOUDY    33  33 100 W5        30.01R FOG     WCI  28
MAUSTON-NEW LI CLOUDY    34  34  99 W6        29.97R FOG     WCI  29
VIROQUA        CLOUDY    33  33 100 W8        29.99R VSB 1/4 WCI  26
WIS DELLS      FOG       33  33  99 W5        29.97R VSB 1   WCI  29
$$

...ELSEWHERE IN WISCONSIN...


CITY           SKY/WX    TMP DP  RH WIND       PRES   REMARKS
MILWAUKEE      CLOUDY    36  33  89 W9        29.95S WCI  29
MADISON        CLOUDY    33  33 100 W6        29.99R FOG     WCI  28
GREEN BAY      FOG       35  35 100 W3        29.94S VSB 3/4
EAU CLAIRE     NOT AVBL
BLACK RVR FLS  MOCLDY    33  33 100 W3        29.99R FOG
MEDFORD        CLEAR     30  29  96 W6        29.92S WCI  24
WAUSAU         CLEAR     32  31  96 NW5       29.92R WCI  27
WIS RAPIDS     NOT AVBL
MARSHFIELD     FOG       30  29  96 W10       29.93R VSB 1   WCI  21
RICE LAKE      FOG       29  29  99 SW5       29.98R VSB<1/4 WCI  24
$$

...NORTHEAST IOWA...


CITY           SKY/WX    TMP DP  RH WIND       PRES   REMARKS
WATERLOO       CLOUDY    33  32  96 SW5       30.06S FOG     WCI  29
DUBUQUE        FOG       33  33 100 W13       30.02R VSB 3/4 WCI  24
DECORAH        FOG       32  32 100 VRB5      30.02S VSB 1/4 WCI  27
MASON CITY     CLOUDY    30  28  92 SW9       30.04F FOG     WCI  22
CHARLES CITY   FOG       32  32 100 W10G16    30.05S VSB 1/4 WCI  24
OELWEIN        FOG       32  32 100 W6        30.05S VSB 1/4 WCI  26
$$

...ELSEWHERE IN IOWA...


CITY           SKY/WX    TMP DP  RH WIND       PRES   REMARKS
DES MOINES     CLOUDY    32  31  96 W10       30.10S FOG     WCI  24
IOWA CITY      CLOUDY    35  33  92 W7        30.11R WCI  29
FORT DODGE     CLOUDY    28  27  93 MISG      30.07S
MARSHALLTOWN   CLOUDY    31  31 100 W9        30.07S FOG     WCI  23
CEDAR RAPIDS   FOG       32  32 100 W6        30.07R VSB 1   WCI  26
$$

...NORTHERN ILLINOIS...


CITY           SKY/WX    TMP DP  RH WIND       PRES   REMARKS
CHICAGO-OHARE  DRIZZLE   35  33  92 W12       29.99R WCI  27
CHICAGO-MIDWAY DRIZZLE   34  34 100 W12G18    30.00R FOG     WCI  25
MOLINE         CLOUDY    34  32  92 W10       30.07R FOG     WCI  26
ROCKFORD       CLOUDY    35  33  92 W9        30.02S FOG     WCI  28
PEORIA         CLOUDY    36  34  92 W8        30.09S WCI  30
$$

NOTE: "FAIR" INDICATES FEW OR NO CLOUDS BELOW 12,000 FEET WITH NO
SIGNIFICANT WEATHER AND/OR OBSTRUCTIONS TO VISIBILITY. WIND
SPEEDS ARE IN MILES-PER-HOUR.




USA.gov is the U.S. government's official web portal to all federal, state and local government web resources and services.